Weather History for Iron Mountain, MI

Change the Weather History Date:

Wednesday, April 30, 2014

  Actual Average Record
Temperature  
Mean Temperature 46 °F -  
Max Temperature 53 °F 63 °F 85 °F (1952)
Min Temperature 39 °F 36 °F 16 °F (1956)
Degree Days  
Heating Degree Days 19    
Moisture  
Dew Point 42 °F    
Average Humidity 88    
Maximum Humidity 100    
Minimum Humidity 67    
Precipitation  
Precipitation 0.02 in - - ()
Sea Level Pressure  
Sea Level Pressure 29.68 in    
Wind  
Wind Speed 5 mph (ESE)    
Max Wind Speed 12 mph    
Max Gust Speed -    
Visibility 5 miles    
Events Fog , Rain    
Averages and records for this station are not official NWS values.
T = Trace of Precipitation, MM = Missing Value Source: NWS Daily Summary

Daily Weather History Graph

Daily Weather History Graph

Search for Another Location

Airport:

Trip Planner

Search our weather history database for the weather conditions in past years. The results will help you decide how hot, cold, wet, or windy it might be!

Date:

Astronomy

Apr. 30, 2014 Rise Set
Actual Time 5:41 AM CDT 7:58 PM CDT
Civil Twilight 5:08 AM CDT 8:31 PM CDT
Nautical Twilight 4:27 AM CDT 9:12 PM CDT
Astronomical Twilight 3:42 AM CDT 9:58 PM CDT
Moon 6:40 AM CDT (4/30) 9:40 PM CDT (4/30)
Length of Visible Light 15h 23m
Length of Day
14h 17m
New Moon, 2% of the Moon is Illuminated
Apr 30
New Moon
May 6
First Quarter
May 14
Full
May 21
Last Quarter
May 28
New

Hourly Weather History & Observations

Time (CDT) Temp. Windchill Dew Point Humidity Pressure Visibility Wind Dir Wind Speed Gust Speed Precip Events Conditions
12:04 AM 39.2 °F 34.2 °F 39.2 °F 100% 29.65 in 1.8 mi ENE 6.9 mph - N/A   Overcast
12:22 AM 39.2 °F 34.2 °F 39.2 °F 100% 29.65 in 0.8 mi East 6.9 mph - N/A   Overcast
12:54 AM 39.9 °F 37.8 °F 39.0 °F 97% 29.68 in 0.8 mi Variable 3.5 mph - N/A   Overcast
1:52 AM 41.0 °F 37.1 °F 39.2 °F 93% 29.65 in 0.2 mi ESE 5.8 mph - N/A Fog Fog
1:54 AM 41.0 °F 36.4 °F 39.9 °F 96% 29.68 in 0.2 mi ESE 6.9 mph - N/A Fog Fog
2:54 AM 41.0 °F 37.1 °F 39.9 °F 96% 29.69 in 0.2 mi ESE 5.8 mph - N/A Fog Fog
3:12 AM 41.0 °F 38.0 °F 39.2 °F 93% 29.66 in 0.5 mi ESE 4.6 mph - N/A Fog Fog
3:20 AM 41.0 °F 38.0 °F 39.2 °F 93% 29.66 in 0.2 mi East 4.6 mph - N/A Fog Fog
3:54 AM 41.0 °F 38.0 °F 39.9 °F 96% 29.69 in 0.5 mi ESE 4.6 mph - N/A Fog Fog
4:09 AM 41.0 °F 39.0 °F 39.2 °F 93% 29.66 in 1.2 mi ESE 3.5 mph - N/A   Overcast
4:24 AM 41.0 °F 39.0 °F 39.2 °F 93% 29.66 in 0.8 mi SE 3.5 mph - N/A   Overcast
4:54 AM 41.0 °F - 39.9 °F 96% 29.69 in 0.5 mi Calm Calm - N/A Fog Fog
5:11 AM 41.0 °F - 39.2 °F 93% 29.66 in 0.2 mi Calm Calm - N/A Fog Fog
5:24 AM 41.0 °F - 39.2 °F 93% 29.66 in 0.5 mi Calm Calm - 0.00 in Fog , Rain Light Rain
5:36 AM 41.0 °F - 41.0 °F 100% 29.67 in 2.0 mi Calm Calm - 0.00 in Rain Light Rain
5:46 AM 41.0 °F - 39.2 °F 93% 29.67 in 4.0 mi Calm Calm - 0.00 in Rain Light Rain
5:54 AM 42.1 °F - 39.9 °F 92% 29.70 in 3.0 mi Calm Calm - 0.00 in Rain Light Rain
6:01 AM 42.8 °F - 41.0 °F 93% 29.67 in 2.5 mi Calm Calm - 0.00 in Rain Light Rain
6:31 AM 42.8 °F - 39.2 °F 87% 29.67 in 1.5 mi Calm Calm - 0.00 in   Overcast
6:54 AM 42.1 °F - 42.1 °F 100% 29.70 in 1.2 mi Calm Calm - 0.00 in   Overcast
7:08 AM 42.8 °F 41.1 °F 41.0 °F 93% 29.68 in 0.5 mi SE 3.5 mph - N/A Fog Fog
7:16 AM 42.8 °F 40.1 °F 42.8 °F 100% 29.68 in 0.2 mi ESE 4.6 mph - N/A Fog Fog
7:25 AM 44.6 °F 41.4 °F 42.8 °F 93% 29.67 in 0.5 mi East 5.8 mph - N/A Fog Fog
7:54 AM 43.0 °F 38.8 °F 42.1 °F 97% 29.72 in 0.8 mi East 6.9 mph - N/A   Overcast
8:13 AM 42.8 °F 38.6 °F 42.8 °F 100% 29.69 in 1.2 mi Variable 6.9 mph - 0.01 in Rain Light Rain
8:30 AM 42.8 °F - 42.8 °F 100% 29.69 in 0.8 mi Calm Calm - 0.01 in Rain Light Rain
8:43 AM 42.8 °F - 42.8 °F 100% 29.69 in 1.5 mi Calm Calm - 0.01 in Rain Light Rain
8:54 AM 43.0 °F 41.3 °F 42.1 °F 97% 29.72 in 1.5 mi ENE 3.5 mph - 0.02 in Rain Rain
9:04 AM 42.8 °F 41.1 °F 42.8 °F 100% 29.69 in 3.0 mi ENE 3.5 mph - 0.00 in Rain Light Rain
10:54 AM 46.0 °F 43.1 °F 44.1 °F 93% 29.71 in 6.0 mi East 5.8 mph - 0.00 in   Overcast
11:34 AM 48.2 °F - 44.6 °F 87% 29.68 in 10.0 mi ESE 4.6 mph - N/A   Overcast
11:54 AM 50.0 °F - 46.0 °F 86% 29.71 in 10.0 mi East 5.8 mph - N/A   Overcast
12:54 PM 50.0 °F - 46.0 °F 86% 29.72 in 10.0 mi SE 5.8 mph - N/A   Overcast
1:36 PM 50.0 °F - 44.6 °F 82% 29.69 in 10.0 mi SE 8.1 mph - N/A   Overcast
1:54 PM 50.0 °F - 45.0 °F 83% 29.71 in 7.0 mi SE 5.8 mph - N/A   Overcast
2:24 PM 51.8 °F - 44.6 °F 76% 29.69 in 10.0 mi SSE 8.1 mph - N/A   Overcast
2:54 PM 50.0 °F - 45.0 °F 83% 29.71 in 10.0 mi ESE 6.9 mph - N/A   Overcast
3:17 PM 51.8 °F - 44.6 °F 76% 29.69 in 10.0 mi SE 4.6 mph - N/A   Overcast
3:24 PM 50.0 °F - 44.6 °F 82% 29.68 in 10.0 mi ESE 8.1 mph - N/A   Overcast
3:54 PM 51.1 °F - 44.1 °F 77% 29.71 in 10.0 mi ESE 3.5 mph - N/A   Overcast
4:03 PM 51.8 °F - 44.6 °F 76% 29.68 in 10.0 mi ESE 3.5 mph - N/A   Overcast
4:12 PM 51.8 °F - 44.6 °F 76% 29.68 in 10.0 mi ESE 3.5 mph - N/A   Overcast
4:49 PM 53.6 °F - 42.8 °F 67% 29.68 in 10.0 mi SE 5.8 mph - N/A   Overcast
4:54 PM 53.1 °F - 43.0 °F 69% 29.70 in 10.0 mi ESE 6.9 mph - N/A   Overcast
5:27 PM 53.6 °F - 42.8 °F 67% 29.68 in 10.0 mi ESE 5.8 mph - N/A   Overcast
5:54 PM 52.0 °F - 43.0 °F 71% 29.70 in 10.0 mi SE 4.6 mph - N/A   Overcast
6:02 PM 51.8 °F - 42.8 °F 71% 29.68 in 10.0 mi SE 3.5 mph - N/A   Overcast
6:24 PM 51.8 °F - 44.6 °F 76% 29.67 in 10.0 mi East 5.8 mph - N/A   Overcast
6:41 PM 51.8 °F - 44.6 °F 76% 29.67 in 10.0 mi East 5.8 mph - N/A   Overcast
6:54 PM 52.0 °F - 44.1 °F 74% 29.70 in 10.0 mi SE 5.8 mph - N/A   Overcast
7:16 PM 51.8 °F - 44.6 °F 76% 29.68 in 10.0 mi SE 4.6 mph - N/A   Overcast
7:54 PM 50.0 °F - 44.1 °F 80% 29.70 in 10.0 mi ESE 4.6 mph - N/A   Overcast
8:21 PM 50.0 °F - 44.6 °F 82% 29.68 in 10.0 mi ESE 3.5 mph - N/A   Overcast
8:54 PM 48.9 °F - 44.1 °F 83% 29.70 in 10.0 mi ESE 5.8 mph - N/A   Overcast
9:03 PM 48.2 °F - 44.6 °F 87% 29.68 in 10.0 mi ESE 5.8 mph - N/A   Overcast
9:54 PM 48.0 °F - 43.0 °F 83% 29.70 in 10.0 mi East 4.6 mph - N/A   Overcast
10:54 PM 46.0 °F 43.9 °F 43.0 °F 89% 29.69 in 8.0 mi ESE 4.6 mph - N/A   Overcast
11:19 PM 46.4 °F 44.3 °F 42.8 °F 87% 29.66 in 7.0 mi ESE 4.6 mph - N/A   Overcast
11:34 PM 44.6 °F 41.4 °F 42.8 °F 93% 29.66 in 6.0 mi ESE 5.8 mph - N/A   Overcast
11:43 PM 44.6 °F 40.2 °F 42.8 °F 93% 29.66 in 5.0 mi ESE 8.1 mph - N/A   Overcast
11:54 PM 44.1 °F 38.1 °F 41.0 °F 89% 29.69 in 5.0 mi East 11.5 mph - N/A   Overcast